[[{"header":{"parameterUnit":"m.s-1","parameterCategory":1,"la1":30.2992,"la2":30.254,"lo1":-89.0895,"lo2":-89.0443,"dy":0.0025,"dx":0.0025,"nx":19,"ny":19,"refTime":"2026-05-04T03:00:00:Z","depth":0,"parameterNumber":2,"parameterNumberName":"U-component_of_WINDS"},"data":[0,0,0,-1.0201,-1.0201,-1.019,-1.019,-1.0183,-1.0183,0,0,0,0,0,0,0,0,0,0,0,-1.0208,-1.0208,-1.0201,-1.0201,-1.019,-1.019,-1.0183,-1.0183,0,0,0,0,0,0,0,0,0,0,0,-1.0208,-1.0208,-1.0208,-1.0201,-1.019,-1.019,-1.0183,-1.0189,0,0,0,0,0,0,0,0,0,0,-1.0198,-1.0207,-1.0208,-1.0208,-1.0201,-1.019,-1.019,-1.0189,-1.0188,-1.019,0,-1.0193,0,-1.0188,-1.0182,-1.0182,0,0,0,-1.0198,-1.0208,-1.0202,-1.0208,-1.0201,-1.019,-1.0194,-1.0188,-1.0188,-1.0189,-1.0192,-1.0192,-1.0188,-1.0182,-1.0182,-1.0204,-1.0204,0,0,-1.0199,-1.0208,-1.0203,-1.0202,-1.0204,-1.0195,-1.0194,-1.0188,-1.0192,-1.0192,-1.0192,-1.0187,-1.0182,-1.0182,-1.0203,-1.0204,0,0,0,-1.0203,-1.0208,-1.0202,-1.0202,-1.02,-1.0194,-1.0194,-1.0192,-1.0189,-1.0192,-1.0187,-1.0182,-1.0182,-1.0203,-1.0204,-1.0223,0,0,0,-1.0203,-1.021,-1.0203,-1.0208,-1.02,-1.0196,-1.0198,-1.019,-1.0189,-1.0187,-1.0182,-1.0182,-1.0203,-1.0203,-1.0222,-1.023,0,0,0,-1.0207,-1.0211,-1.0211,-1.0208,-1.0204,-1.0196,-1.0193,-1.0189,-1.0186,-1.0182,-1.0182,-1.0203,-1.0203,-1.0221,-1.0229,-1.0239,0,0,0,-1.0215,-1.0227,-1.0211,-1.0224,-1.0204,-1.0208,-1.0192,-1.0195,-1.0194,-1.0182,-1.0203,-1.0204,-1.0221,-1.0228,-1.0238,-1.0248,-1.0253,0,0,-1.0235,-1.023,-1.0237,-1.0222,-1.0231,-1.0209,-1.0221,-1.0212,-1.0203,-1.0204,-1.0205,-1.0222,-1.0229,-1.0238,-1.0282,-1.0286,0,0,0,-1.0246,-1.0251,-1.0252,-1.0252,-1.0246,-1.0242,-1.023,-1.0227,-1.0227,-1.0206,-1.0229,-1.0232,-1.0238,-1.0242,-1.0246,-1.025,-1.0206,-1.0206,-1.0206,-1.0286,-1.0276,-1.0287,-1.0276,-1.0277,-1.0266,-1.0265,-1.0259,-1.0247,-1.0254,-1.0253,-1.0281,-1.0286,-1.0289,-1.0293,-1.0259,-1.0259,-1.0259,-1.0259,-1.0315,-1.032,-1.0307,-1.0313,-1.0302,-1.0307,-1.0298,-1.029,-1.0293,-1.028,-1.0284,-1.0269,-1.0294,-1.0297,-1.026,-1.026,-1.026,-1.026,-1.026,-1.0339,-1.034,-1.0337,-1.0338,-1.0339,-1.0328,-1.0333,-1.0323,-1.0314,-1.0318,-1.0317,-1.0317,-1.0315,-1.0319,-1.0319,-1.0319,-1.0319,-1.0319,-1.0319,-1.0365,-1.0361,-1.0366,-1.0363,-1.0362,-1.0361,-1.0352,-1.0352,-1.0349,-1.0341,-1.0341,-1.033,-1.0299,-1.0291,-1.032,-1.032,-1.032,-1.032,-1.032,-1.0396,-1.0388,-1.0395,-1.0395,-1.0391,-1.0394,-1.0383,-1.0384,-1.0382,-1.0385,-1.0373,-1.0352,-1.0346,-1.0343,-1.0336,-1.0375,-1.0375,-1.0375,-1.0375,-1.0415,-1.0412,-1.0418,-1.0419,-1.0419,-1.041,-1.042,-1.0414,-1.0407,-1.0405,-1.0399,-1.039,-1.0387,-1.0382,-1.0378,-1.0372,-1.0419,-1.0419,-1.0419,-1.0434,-1.043,-1.0439,-1.0433,-1.043,-1.0428,-1.0437,-1.0439,-1.0429,-1.0421,-1.0404,-1.0402,-1.0387,-1.0383,-1.0372,-1.0366,-1.0354,0,0]},{"header":{"parameterUnit":"m.s-1","parameterCategory":1,"la1":30.2992,"la2":30.254,"lo1":-89.0895,"lo2":-89.0443,"dy":0.0025,"dx":0.0025,"nx":19,"ny":19,"refTime":"2026-05-04T03:00:00:Z","depth":0,"parameterNumber":3,"parameterNumberName":"V-component_of_WINDS"},"data":[0,0,0,2.5305,2.5304,2.527,2.527,2.5217,2.5216,0,0,0,0,0,0,0,0,0,0,0,2.531,2.531,2.5305,2.5304,2.527,2.527,2.5217,2.5216,0,0,0,0,0,0,0,0,0,0,0,2.531,2.531,2.5309,2.5304,2.527,2.527,2.5217,2.5246,0,0,0,0,0,0,0,0,0,0,2.528,2.5281,2.531,2.5309,2.5303,2.527,2.527,2.5247,2.5244,2.5228,0,2.5215,0,2.5215,2.5212,2.5212,0,0,0,2.5307,2.5284,2.5279,2.5309,2.5303,2.527,2.5286,2.5245,2.5242,2.5224,2.5214,2.5212,2.5214,2.5212,2.5212,2.5115,2.5114,0,0,2.5309,2.5301,2.5282,2.5276,2.5283,2.5287,2.5285,2.5243,2.5231,2.5214,2.5211,2.5213,2.5211,2.5211,2.5116,2.5115,0,0,0,2.5312,2.5302,2.5299,2.5278,2.5273,2.5286,2.5284,2.5233,2.5233,2.5211,2.5212,2.5211,2.521,2.5116,2.5115,2.5079,0,0,0,2.5313,2.5304,2.5299,2.5294,2.5274,2.5253,2.5274,2.5236,2.5231,2.5213,2.5211,2.521,2.5117,2.5116,2.5081,2.5062,0,0,0,2.5314,2.5304,2.5298,2.5294,2.528,2.5254,2.5251,2.5235,2.5232,2.5212,2.521,2.5117,2.5116,2.5084,2.5066,2.5035,0,0,0,2.5312,2.5266,2.5297,2.5247,2.528,2.5232,2.5252,2.5216,2.5195,2.5211,2.5117,2.5115,2.5084,2.5068,2.5037,2.5006,2.4993,0,0,2.5249,2.5258,2.5229,2.5256,2.5201,2.5238,2.5177,2.5164,2.5168,2.5132,2.513,2.5081,2.5066,2.5035,2.4923,2.4913,0,0,0,2.5206,2.5185,2.5172,2.5152,2.5142,2.5131,2.5128,2.5123,2.5093,2.5149,2.5061,2.5053,2.5035,2.5021,2.5012,2.4996,2.5109,2.5109,2.5109,2.5106,2.5115,2.5067,2.5072,2.5052,2.505,2.5035,2.5027,2.5042,2.5021,2.501,2.4941,2.4924,2.4917,2.4901,2.4995,2.4995,2.4995,2.4995,2.5014,2.4985,2.5006,2.4967,2.4977,2.4944,2.494,2.4951,2.492,2.495,2.4935,2.4965,2.4906,2.4892,2.4992,2.4993,2.4993,2.4993,2.4993,2.4948,2.4936,2.4932,2.4904,2.4882,2.4888,2.4858,2.4868,2.4877,2.4862,2.485,2.4851,2.4852,2.4856,2.4856,2.4855,2.4855,2.4855,2.4855,2.4881,2.4878,2.4853,2.4838,2.4827,2.4813,2.4811,2.4799,2.4789,2.4798,2.4798,2.4813,2.4899,2.4919,2.4851,2.4852,2.4852,2.4853,2.4853,2.4783,2.4807,2.4767,2.4756,2.474,2.4717,2.473,2.4706,2.4698,2.4682,2.4702,2.4764,2.4772,2.4779,2.4796,2.4701,2.4701,2.4701,2.4701,2.4727,2.4733,2.4695,2.4676,2.4659,2.4667,2.462,2.4618,2.4619,2.4614,2.463,2.4654,2.4661,2.4665,2.4675,2.4691,2.457,2.457,2.457,2.4666,2.4672,2.4631,2.4634,2.4622,2.4612,2.4568,2.4544,2.455,2.4565,2.4611,2.4616,2.4655,2.4667,2.4681,2.4696,2.4726,0,0]}]]